CAPE
0 0 0 0 0 0 0 0 0 0 0 0 0 0 0 22 40 0 7 31 38 223 405 816 1116 1221 1510 1838 2072 2185 2310 2420 2402 2438 2429 2509 2285 2064 1800 1747 1643 1550 1455 1353
0 0 0 0 0 0 0 0 0 0 0 0 0 0 0 0 46 4 4 84 217 257 331 588 924 1049 1421 1802 2019 2157 2185 2107 2204 2155 2107 2237 2135 1838 1633 1589 1572 1475 1401 1264
0 0 0 0 0 0 0 0 0 0 0 0 0 8 0 0 0 5 56 184 17 13 441 580 859 1189 1531 1734 1976 2070 1967 1917 1932 1967 2026 2078 1908 1703 1596 1566 1458 1239 1203 1227
0 0 0 0 0 1 6 0 0 0 0 0 0 43 24 1 3 237 50 156 105 181 326 825 1191 1464 1532 1723 1847 1824 1807 1811 1891 2038 2030 1889 1904 1760 1580 1529 1437 1310 1274 1268
0 0 0 0 0 0 7 1 0 0 0 0 0 10 0 45 6 274 251 158 51 0 186 1020 1482 1612 1660 1693 1831 1827 1847 1902 2012 2088 1993 1919 1914 1780 1550 1449 1430 1369 1297 1368
0 0 0 0 9 72 28 0 0 0 0 0 0 0 0 53 284 491 341 54 177 126 681 1135 1664 1866 1797 1807 1975 2021 1933 2013 2062 1994 1976 1940 1884 1807 1674 1632 1618 1486 1392 1520
0 0 0 0 18 16 2 0 0 0 0 0 0 0 157 475 591 697 977 1076 1358 1534 1752 1568 1982 2074 2014 1966 2037 2120 2211 2288 2302 2224 2142 2103 2052 1919 1851 1835 1725 1649 1653 1546
0 0 0 0 3 0 0 0 0 0 0 0 0 0 507 733 829 962 1526 1836 2100 1848 2183 2374 2379 2327 2213 2332 2412 2485 2519 2480 2412 2368 2265 2151 2169 2100 2050 1969 1957 1902 1866 1600
0 0 0 0 0 0 0 0 0 0 0 0 0 0 471 1051 1359 1947 2077 2014 1943 1987 2125 2674 2773 2575 2535 2603 2787 2886 2822 2687 2513 2384 2416 2383 2220 2111 2074 1995 1697 1563 1233 1090
0 5 0 7 0 0 0 0 0 0 0 0 0 0 337 883 961 957 869 929 720 1278 2392 2682 2727 2708 2648 2742 2987 3250 3231 3013 2759 2614 2554 2484 2354 2241 2116 1838 1713 1346 1012 741
0 9 0 0 0 0 0 0 0 0 0 0 0 10 209 306 430 378 326 391 544 387 696 1998 2286 2365 2196 2368 2579 2676 2698 2630 2520 2304 2208 1973 1613 1411 1363 833 739 736 460 345
0 0 0 0 0 0 0 0 0 0 0 0 0 11 46 76 86 236 330 189 293 109 621 617 768 843 945 1151 1443 1757 1961 1826 1588 1425 1103 789 613 415 1 51 10 0 0 0
0 0 0 0 0 3 0 3 0 0 0 0 0 0 40 101 70 94 182 159 219 26 203 638 533 574 563 670 685 697 696 720 716 579 370 376 340 271 211 17 0 0 0 0
0 0 0 0 4 10 34 75 15 14 11 8 3 0 0 0 0 0 0 35 70 66 66 494 437 430 435 374 372 353 469 510 458 439 517 508 526 496 294 210 143 49 0 0
0 0 0 0 7 20 50 62 30 16 19 50 25 26 1 0 0 41 33 31 47 63 392 439 373 358 423 458 436 325 372 313 267 243 215 217 259 252 175 189 219 62 0 0
0 0 0 0 13 37 16 21 35 83 75 66 44 43 6 0 0 15 82 144 246 389 259 191 192 278 370 416 416 420 380 313 258 184 181 189 221 378 268 156 76 13 0 0
33 0 0 6 12 33 48 42 50 158 163 179 124 42 43 57 173 114 142 205 129 131 60 42 99 105 260 266 347 186 242 318 244 177 158 49 49 93 68 71 25 11 0 0
197 221 220 166 206 235 196 121 96 151 220 22 264 201 206 165 148 106 105 73 10 0 0 38 34 120 255 237 356 153 162 142 117 112 97 171 191 163 106 106 86 32 2 0
211 282 253 238 130 153 303 171 70 38 227 310 352 303 274 208 148 118 54 3 1 0 0 0 57 93 137 102 229 164 182 106 48 120 120 79 128 142 131 132 175 152 20 0
9 102 66 41 74 59 62 157 2 0 105 53 96 169 167 178 33 43 53 16 0 0 1 6 0 0 1 1 3 61 7 0 6 36 58 23 23 33 18 12 18 42 3 0
0 0 11 0 16 15 4 20 53 25 0 0 0 80 152 138 14 13 34 19 8 0 0 0 0 0 0 0 0 12 19 15 17 47 55 27 24 27 34 28 28 30 31 28
1 0 0 0 0 6 38 31 71 44 0 0 0 0 82 83 10 8 6 25 2 0 0 0 0 0 0 0 0 0 2 0 19 9 19 10 4 0 6 31 4 0 0 1
0 0 0 11 16 8 2 0 9 23 5 0 1 82 48 38 4 14 20 5 0 0 0 0 0 0 0 0 0 0 0 0 0 0 0 0 0 0 0 0 0 0 0 0
0 0 0 24 0 0 0 0 47 2 0 0 122 67 17 16 23 7 7 0 0 3 0 0 0 0 0 0 0 0 0 0 0 0 0 0 0 0 0 0 0 0 0 0
0 0 0 0 0 0 5 120 69 0 0 0 5 71 16 0 11 0 3 0 0 0 0 0 0 0 0 0 0 0 0 0 0 0 0 0 0 0 0 0 0 0 0 0
0 0 0 0 1 0 19 48 104 41 21 111 144 59 17 0 4 0 0 0 0 0 0 0 1 1 0 0 0 0 0 0 0 0 0 0 0 0 0 0 0 0 0 0
0 0 0 0 0 0 0 53 72 63 0 50 118 6 1 0 0 0 0 0 0 0 0 0 0 0 0 0 0 0 0 0 0 0 0 0 0 0 0 0 0 0 0 0
CIN
0 0 0 0 0 0 0 0 0 0 0 0 0 0 0 -76 -117 0 -173 -177 -81 -159 -162 -198 -163 -195 -222 -231 -241 -241 -215 -193 -163 -163 -133 -92 -96 -101 -121 -111 -111 -111 -108 -96
0 0 0 0 0 0 0 0 0 0 0 0 0 0 0 -12 -67 -26 -111 -64 -124 -205 -140 -168 -187 -171 -193 -239 -241 -240 -202 -173 -203 -210 -202 -153 -131 -167 -186 -172 -163 -157 -134 -125
0 0 0 0 0 0 0 0 0 0 0 0 0 -243 0 0 0 -108 -100 -71 -111 -101 -111 -134 -186 -217 -209 -221 -269 -243 -219 -219 -221 -234 -216 -192 -192 -207 -211 -195 -183 -195 -185 -144
0 0 0 0 0 -28 -106 -7 0 0 0 0 0 -384 -378 -183 -84 -239 -135 -110 -105 -105 -151 -176 -266 -239 -297 -268 -259 -253 -250 -251 -237 -228 -217 -215 -205 -209 -221 -211 -209 -207 -195 -176
0 0 0 0 0 0 -90 -24 0 0 0 0 0 -349 0 -271 -250 -202 -269 -112 -152 0 -150 -186 -277 -258 -211 -213 -244 -246 -247 -249 -227 -217 -214 -214 -198 -185 -201 -198 -178 -172 -170 -138
0 0 0 0 -170 -184 -176 0 0 0 0 0 0 0 -20 -363 -383 -329 -232 -320 -98 -186 -268 -243 -277 -253 -193 -190 -198 -196 -209 -203 -200 -213 -224 -208 -191 -159 -154 -135 -105 -112 -118 -89
0 0 0 0 -166 -226 -32 0 0 0 0 0 0 0 -494 -531 -345 -428 -303 -222 -257 -222 -216 -216 -270 -224 -163 -175 -176 -158 -159 -156 -155 -159 -174 -166 -155 -145 -100 -73 -66 -61 -61 -59
0 0 0 0 -51 0 0 0 0 0 0 0 0 0 -436 -469 -408 -319 -254 -238 -244 -190 -230 -298 -255 -194 -155 -132 -159 -156 -125 -121 -127 -129 -145 -145 -108 -86 -60 -30 -19 -18 -22 -40
0 0 0 0 0 0 0 0 0 0 0 0 0 0 -383 -296 -347 -286 -310 -341 -341 -212 -235 -276 -229 -168 -130 -164 -152 -119 -94 -76 -80 -81 -76 -72 -48 -36 -36 -35 -36 -29 -45 -58
0 -153 0 -99 0 0 0 0 0 0 0 0 0 -46 -353 -249 -330 -359 -513 -550 -630 -394 -249 -240 -238 -203 -190 -185 -136 -86 -56 -55 -69 -51 -44 -42 -39 -36 -23 -23 -29 -42 -51 -85
0 -188 0 0 0 0 0 0 0 0 0 0 0 -366 -392 -391 -415 -447 -488 -545 -595 -551 -207 -271 -270 -241 -268 -240 -184 -127 -113 -98 -75 -68 -55 -59 -84 -102 -69 -148 -123 -74 -112 -129
0 0 0 0 0 0 0 0 0 0 0 0 0 -264 -372 -418 -468 -406 -417 -501 -483 -526 -135 -122 -395 -438 -421 -392 -331 -248 -171 -147 -149 -149 -166 -189 -195 -250 -35 -528 -163 0 0 0
0 0 0 0 0 -286 0 -134 -1 0 0 0 0 0 -271 -361 -348 -310 -391 -395 -375 -88 -210 -73 -217 -446 -486 -455 -427 -373 -340 -324 -288 -262 -274 -248 -265 -291 -296 -252 0 0 0 0
0 0 0 0 -119 -97 -160 -140 -126 -93 -68 -37 -20 0 0 0 0 0 0 -256 -334 -302 -121 -70 -168 -287 -382 -428 -403 -399 -322 -266 -266 -248 -157 -109 -92 -86 -179 -231 -246 -327 0 0
0 0 0 0 -198 -200 -171 -132 -122 -101 -51 -75 -51 -35 -7 0 0 -257 -270 -275 -237 -127 -19 -57 -169 -171 -238 -251 -261 -294 -238 -263 -279 -271 -252 -161 -92 -104 -165 -164 -143 -281 0 0
0 0 0 0 -102 -195 -142 -138 -102 -59 -58 -52 -76 -71 -136 0 0 -191 -158 -90 -64 -21 -83 -124 -166 -172 -178 -149 -146 -146 -173 -174 -164 -218 -168 -136 -89 -39 -74 -111 -198 -345 0 0
-118 0 0 -71 -72 -125 -107 -108 -117 -87 -39 -42 -32 -77 -50 -85 -60 -82 -64 -182 -51 -112 -171 -209 -222 -213 -132 -127 -91 -175 -185 -76 -90 -89 -169 -292 -251 -183 -219 -215 -264 -261 0 0
-156 -137 -96 -108 -92 -60 -66 -77 -100 -103 -95 -130 -95 -48 -77 -84 -98 -90 -100 -102 -159 -53 0 -238 -236 -173 -98 -113 -48 -155 -124 -126 -134 -108 -153 -73 -56 -76 -117 -82 -111 -146 -72 0
-116 -91 -99 -95 -102 -81 -64 -72 -96 -97 -72 -74 -77 -74 -85 -87 -97 -124 -154 -80 -146 0 0 0 -177 -120 -108 -169 -50 -81 -75 -112 -201 -119 -131 -113 -90 -49 -22 -24 -21 -26 -115 -10
-73 -44 -75 -95 -117 -116 -125 -87 -21 0 -83 -108 -99 -84 -87 -84 -147 -148 -138 -173 0 0 -110 -86 0 -24 -36 -30 -100 -71 -44 -3 -24 -170 -132 -48 -143 -34 -35 -33 -23 -47 -22 0
0 0 -81 0 -128 -130 -147 -173 -137 -56 0 0 0 -87 -73 -96 -148 -168 -157 -161 -186 0 0 0 0 0 0 0 0 -41 -30 -30 -32 -19 -101 -22 -38 -34 -31 -37 -31 -35 -39 -45
-25 0 0 0 0 -136 -148 -226 -182 -167 0 0 0 0 -93 -98 -113 -120 -89 -133 -61 0 0 0 0 0 0 0 0 0 -34 -12 -49 -36 -41 -26 -23 0 -28 -44 -26 0 0 -30
0 0 0 -53 -112 -160 -77 0 -148 -208 -57 0 -32 -110 -84 -105 -48 -87 -124 -162 0 0 0 0 0 0 0 0 0 0 0 0 0 0 0 0 0 0 0 0 0 0 0 0
0 0 0 -69 0 0 0 0 -207 -20 0 0 -133 -130 -127 -132 -128 -133 -147 0 0 -151 0 0 0 0 0 0 0 0 0 0 0 0 0 0 0 0 0 0 0 0 0 0
0 0 0 0 0 0 -137 -122 -137 0 0 0 -43 -143 -146 0 -86 0 -198 0 0 0 0 0 0 -11 0 0 0 0 0 0 0 0 0 0 0 0 0 0 0 0 0 0
0 0 0 0 -70 0 -78 -115 -82 -126 -62 -97 -105 -124 -133 0 -144 -42 0 0 0 0 0 0 -16 -31 0 0 0 0 0 0 0 0 0 0 0 0 0 0 0 0 0 0
0 0 0 0 0 0 0 -57 -74 -69 0 -68 -62 -68 -37 0 0 0 0 0 0 0 0 0 0 0 0 0 0 0 0 0 0 0 0 0 0 0 0 0 0 0 0 0
Wind_Speed
23 24 23 24 23 25 27 27 29 33 30 29 32 33 32 20 19 16 11 4 20 10 27 24 24 14 12 10 11 12 13 13 15 17 16 17 16 15 14 13 11 10 9 9
29 25 31 37 32 27 26 24 28 30 27 30 32 29 32 29 14 21 26 13 6 19 13 22 25 18 11 10 10 11 11 12 13 13 13 14 14 13 12 12 12 10 8 7
37 34 39 44 30 30 26 25 26 30 28 32 32 29 31 32 32 31 18 16 7 16 31 15 19 16 11 9 7 8 8 8 10 10 10 11 10 9 9 9 9 8 9 8
36 33 45 32 27 24 21 24 26 28 30 31 33 34 34 34 32 28 16 11 15 6 24 24 11 9 7 4 7 7 6 6 6 7 7 7 7 7 6 6 7 7 6 4
31 32 35 34 26 25 28 33 26 32 34 32 34 34 32 22 29 30 34 12 11 15 14 12 13 10 7 4 5 5 5 4 4 4 4 4 5 5 2 3 3 4 4 4
24 31 35 26 21 24 25 43 26 30 33 36 35 36 38 32 32 28 32 27 11 21 15 9 12 10 8 6 5 5 5 5 4 4 4 5 5 4 3 2 3 2 3 4
22 28 30 26 27 24 30 36 27 32 36 37 38 37 42 41 39 32 17 18 15 8 13 12 13 12 10 7 4 2 2 2 2 3 3 4 4 5 6 5 5 4 4 4
23 27 34 19 22 27 29 35 38 38 36 39 41 42 41 37 35 27 21 20 20 19 15 14 13 13 10 8 3 4 4 3 4 5 7 7 6 7 7 7 7 7 6 6
18 22 24 23 28 31 35 42 41 39 38 40 43 41 37 31 27 21 20 20 26 24 16 13 13 11 9 5 4 6 7 9 9 9 10 11 9 9 10 9 8 8 9 10
24 20 25 35 32 26 40 37 34 37 41 40 42 38 32 28 22 20 16 16 18 23 23 13 11 8 6 7 8 8 9 10 11 10 10 11 13 14 15 15 15 16 17 17
29 35 37 36 28 22 29 35 36 37 37 39 37 33 28 26 23 23 20 14 14 20 26 14 7 6 6 6 6 8 10 12 11 11 12 14 16 17 18 19 20 22 23 19
39 37 34 33 28 22 27 32 31 30 31 31 33 34 30 23 21 24 26 23 16 23 27 27 10 6 8 8 6 7 9 11 12 13 14 15 15 17 19 18 19 19 18 18
39 33 27 30 29 18 14 26 25 28 28 30 30 29 28 27 22 20 20 20 20 31 29 28 22 8 8 8 8 9 9 10 12 13 13 14 14 15 17 18 18 18 18 18
38 35 35 27 24 21 15 8 21 23 26 24 21 21 19 19 13 13 14 14 17 32 35 29 21 16 13 11 11 11 11 12 13 14 14 14 14 14 15 17 18 18 19 16
39 37 36 33 31 24 8 4 22 21 9 8 9 18 20 18 13 13 15 14 18 35 27 20 17 18 15 11 9 10 11 13 13 13 13 14 15 15 15 15 15 16 17 17
33 33 31 32 30 26 20 9 19 23 15 13 17 20 10 10 19 17 7 9 20 22 19 16 15 17 15 12 10 11 12 13 13 13 13 14 15 14 15 16 16 17 17 17
23 23 24 26 26 24 24 23 22 22 19 15 13 22 25 25 5 7 16 11 18 16 15 14 14 15 14 13 10 12 13 13 13 13 13 14 14 15 15 15 15 16 16 16
13 15 15 18 19 22 25 26 24 22 13 14 17 20 17 9 10 3 7 8 8 11 14 13 13 14 14 12 10 11 12 13 15 14 14 16 15 16 16 15 15 14 15 16
14 15 16 17 19 21 23 24 24 21 16 10 10 10 11 11 14 7 3 3 6 11 13 11 9 8 9 10 8 10 11 13 15 14 15 15 16 16 15 15 16 13 14 16
15 16 18 20 22 23 24 23 21 21 8 10 7 6 8 9 8 7 7 2 6 8 6 8 9 9 8 8 9 9 10 13 14 13 14 16 16 16 16 16 16 16 17 18
20 21 22 23 24 26 25 26 25 23 21 20 4 8 10 8 10 6 2 3 7 6 7 10 11 11 8 8 9 9 10 12 13 12 12 14 15 16 17 17 17 17 18 18
23 23 24 25 26 26 27 27 27 26 18 12 8 3 4 6 7 6 5 4 8 7 10 11 11 7 6 8 10 8 9 11 12 13 13 14 15 16 16 16 18 19 20 21
26 26 25 25 27 28 29 28 28 24 19 11 4 4 8 5 4 5 5 5 7 7 8 11 10 7 9 10 11 11 11 12 12 13 14 14 16 17 18 19 20 21 22 23
29 27 26 25 26 27 27 27 22 17 11 4 1 4 1 2 3 6 5 7 8 8 9 11 13 14 12 11 11 11 12 12 11 11 12 14 15 17 19 20 21 22 23 25
29 29 28 27 27 25 24 22 18 14 8 5 3 2 2 5 7 3 4 6 7 7 7 8 9 10 10 10 12 12 12 12 12 12 13 14 16 18 19 21 23 24 25 27
29 29 29 26 24 23 22 17 14 11 7 5 4 3 0 9 5 3 2 3 4 5 6 7 8 9 9 9 10 11 13 13 14 13 14 16 16 19 22 24 25 26 27 29
30 28 27 25 23 21 17 11 9 4 5 1 3 6 2 2 3 3 7 8 6 4 4 6 7 8 9 10 10 10 11 13 14 14 16 16 18 20 23 25 27 29 30 31
Wind_Direction
291 291 292 291 295 299 296 297 294 292 299 299 300 280 280 293 279 281 283 328 269 224 184 184 187 180 172 163 150 143 139 131 139 144 143 144 142 138 136 129 128 126 122 123
289 292 291 280 289 298 299 297 294 295 297 305 301 300 277 275 274 283 269 301 330 262 235 181 184 178 168 167 157 142 137 136 133 132 134 142 142 139 132 133 130 119 115 111
280 291 289 277 290 294 296 295 294 289 295 299 296 304 287 274 268 268 278 272 283 262 233 247 184 182 176 168 166 156 147 136 139 134 134 141 141 132 134 133 125 126 127 129
286 292 278 290 297 300 296 297 292 290 292 295 290 288 286 272 273 275 260 255 265 196 258 255 190 201 249 211 189 184 171 161 155 152 149 148 149 150 141 134 142 143 146 144
289 287 288 288 295 299 298 291 295 286 285 290 290 289 285 300 277 275 256 212 221 215 235 233 241 237 236 214 201 219 222 219 211 187 181 175 178 178 161 159 165 175 174 185
291 288 287 294 306 311 308 282 293 285 285 286 287 278 268 293 284 279 269 261 249 180 264 225 227 216 187 185 199 241 258 250 237 220 218 210 209 216 266 270 241 235 224 215
295 293 292 300 307 314 294 289 292 289 286 283 279 277 273 280 274 272 272 261 263 218 191 202 213 215 194 192 203 234 268 277 274 269 262 257 272 289 291 285 287 269 261 258
298 295 291 314 316 305 303 296 293 289 291 285 279 274 273 284 280 271 260 262 266 264 262 257 239 204 191 189 261 292 302 310 312 318 322 321 313 314 313 305 291 281 279 273
302 303 309 318 309 309 306 291 292 289 290 281 271 271 273 281 280 274 265 267 267 261 259 248 237 218 206 232 268 288 296 300 303 309 315 321 323 319 318 315 308 299 295 294
302 314 313 303 313 319 297 290 298 291 279 273 265 268 275 275 274 269 264 270 281 276 253 243 229 220 223 268 287 292 298 302 308 305 310 317 320 320 318 316 315 314 313 308
292 289 288 293 325 334 313 298 295 291 283 278 273 271 274 276 267 260 261 267 279 277 263 243 217 227 251 276 299 307 310 310 314 315 314 317 319 320 319 320 318 315 315 314
277 285 297 308 332 342 325 318 302 303 294 287 277 271 265 270 269 259 255 252 270 287 267 249 262 265 289 301 314 320 319 318 320 322 321 323 324 326 328 327 326 327 329 326
272 289 305 309 326 343 1 324 321 313 310 303 287 279 265 264 264 261 258 247 257 267 260 249 263 288 307 318 328 329 327 325 324 325 326 326 327 327 327 332 335 338 339 338
263 272 271 304 324 345 360 84 352 303 310 335 310 283 270 262 260 255 253 241 256 256 248 246 264 288 308 322 327 329 335 337 336 334 329 326 326 329 331 331 331 335 341 344
241 245 244 278 288 311 18 106 263 267 237 175 145 291 266 263 258 266 252 261 258 241 239 258 276 288 306 324 341 345 348 346 344 344 342 337 334 334 336 337 338 339 341 344
263 262 274 267 264 277 237 202 240 283 27 120 135 135 255 267 256 259 257 256 230 239 253 266 284 294 312 327 339 345 347 348 347 349 346 343 337 337 336 339 338 338 340 342
277 275 280 275 281 275 269 263 259 288 5 322 230 160 155 157 261 255 235 247 249 258 265 278 290 301 315 322 334 339 347 348 351 348 349 346 345 337 336 338 339 341 344 345
301 304 303 295 295 290 283 273 260 301 7 35 83 116 86 18 34 290 242 256 273 275 277 289 301 302 312 330 343 348 350 350 347 348 351 345 342 342 338 338 339 342 344 342
313 310 304 299 300 302 298 295 285 302 315 33 58 81 84 75 87 67 45 309 286 283 292 308 321 329 338 343 351 354 353 352 358 356 353 352 350 346 344 344 343 349 345 341
307 314 306 304 301 298 294 302 303 296 353 343 26 69 90 97 91 97 97 9 304 309 339 335 336 340 346 2 355 3 8 7 6 6 7 10 7 1 359 356 349 346 344 340
297 303 300 303 295 293 289 287 287 288 293 293 19 125 123 100 87 79 10 7 296 323 330 333 336 344 354 352 360 9 13 12 10 18 22 15 8 7 6 5 3 359 355 353
298 300 299 297 293 276 278 282 281 279 301 316 317 355 68 96 92 60 23 48 285 323 338 334 337 348 8 4 12 26 31 34 30 26 25 18 14 4 360 358 357 355 351 347
295 297 302 302 297 296 292 289 285 278 285 294 313 98 117 105 87 71 28 31 27 14 9 350 360 53 73 60 57 53 47 38 33 29 25 23 15 13 10 3 358 354 352 349
286 289 292 297 300 303 298 290 286 281 287 271 267 123 110 14 339 331 23 70 69 68 45 47 69 78 71 58 49 37 28 25 32 36 39 26 18 12 8 4 359 353 350 347
277 279 284 287 286 296 291 282 283 281 282 273 290 141 132 286 301 344 67 71 78 76 60 43 58 57 52 44 39 35 38 42 40 31 23 18 15 12 8 2 355 352 348 345
271 272 274 282 286 291 290 296 290 296 283 279 279 130 49 281 302 43 30 68 52 73 72 58 47 41 42 38 37 47 51 54 53 43 32 18 12 9 3 358 354 349 345 342
256 258 261 268 282 290 302 316 312 302 308 354 317 295 276 97 69 63 78 77 74 65 41 31 39 55 58 58 54 44 42 37 31 27 20 18 11 4 359 355 351 346 342 340